Powrót do katalogu

COSMOS 1285 DEB

LostHEO
NORAD 33523·DEBRIS·🇷🇺 Russia

Wystrzelony Aug 4, 1981 z Plesetsk Cosmodrome

Loading…

Następne Przeloty (najbliższe 24 godziny)

TLE

NieaktualneSource: Space-Track

Epoka: Jul 31, 2011, 20:15 UTC

1 33523U 81071Y   11212.84433352 -.00000341  00000-0  10000-3 0  9995
2 33523  67.5265  29.1603 6097445 133.4005 289.5488  1.98022195 75756

Śledź COSMOS 1285 DEB w czasie rzeczywistym z AllMySat

Download on the App Store